Time,TemperatureF,DewpointF,PressureIn,WindDirection,WindDirectionDegrees,WindSpeedMPH,WindSpeedGustMPH,Humidity,HourlyPrecipIn,Conditions,Clouds,dailyrainin,SolarRadiationWatts/m^2,SoftwareType,DateUTC
2013-08-15 00:01:00,61.5,54.0,30.00,NW,315,2.0,7.0,76,0.00,,,0.00,0.0,meteohub,2013-08-15 04:01:00,
2013-08-15 00:02:00,61.5,54.0,30.00,NW,315,2.0,7.0,76,0.00,,,0.00,0.0,meteohub,2013-08-15 04:02:00,
2013-08-15 00:03:00,61.5,53.6,30.00,NW,315,2.0,7.0,75,0.00,,,0.00,0.0,meteohub,2013-08-15 04:03:00,
2013-08-15 00:08:00,61.2,53.6,30.01,NW,315,1.0,7.0,76,0.00,,,0.00,0.0,meteohub,2013-08-15 04:08:00,
2013-08-15 00:13:00,61.0,53.8,30.00,NW,315,2.0,7.0,77,0.00,,,0.00,0.0,meteohub,2013-08-15 04:13:00,
2013-08-15 00:18:00,60.8,53.6,30.01,NW,315,4.0,4.0,77,0.00,,,0.00,0.0,meteohub,2013-08-15 04:18:00,
2013-08-15 00:23:00,60.4,53.6,30.01,NNW,333,2.0,5.0,78,0.00,,,0.00,0.0,meteohub,2013-08-15 04:23:00,
2013-08-15 00:28:00,60.1,53.6,30.01,NNW,333,1.0,5.0,79,0.00,,,0.00,0.0,meteohub,2013-08-15 04:28:00,
2013-08-15 00:33:00,59.5,53.4,30.01,NNW,333,0.0,5.0,80,0.00,,,0.00,0.0,meteohub,2013-08-15 04:33:00,
2013-08-15 00:38:00,59.4,53.6,30.01,NNW,333,0.0,5.0,81,0.00,,,0.00,0.0,meteohub,2013-08-15 04:38:00,
2013-08-15 00:43:00,59.4,53.8,30.02,NNW,333,0.0,2.0,82,0.00,,,0.00,0.0,meteohub,2013-08-15 04:43:00,
2013-08-15 00:49:00,58.8,53.6,30.02,NNW,333,0.0,0.0,83,0.00,,,0.00,0.0,meteohub,2013-08-15 04:49:00,
2013-08-15 00:54:00,58.5,53.2,30.02,NNW,333,0.0,0.0,83,0.00,,,0.00,0.0,meteohub,2013-08-15 04:54:00,
2013-08-15 00:59:00,57.9,53.1,30.02,NNW,333,0.0,0.0,84,0.00,,,0.00,0.0,meteohub,2013-08-15 04:59:00,
2013-08-15 01:04:00,57.7,53.2,30.02,NNW,333,0.0,0.0,85,0.00,,,0.00,0.0,meteohub,2013-08-15 05:04:00,
2013-08-15 01:09:00,57.7,53.2,30.01,NNW,333,0.0,0.0,85,0.00,,,0.00,0.0,meteohub,2013-08-15 05:09:00,
2013-08-15 01:14:00,57.4,53.2,30.02,NNW,333,0.0,0.0,86,0.00,,,0.00,0.0,meteohub,2013-08-15 05:14:00,
2013-08-15 01:19:00,57.0,52.9,30.02,NNW,333,0.0,0.0,86,0.00,,,0.00,0.0,meteohub,2013-08-15 05:19:00,
2013-08-15 01:25:00,56.7,52.9,30.02,NNW,333,0.0,0.0,87,0.00,,,0.00,0.0,meteohub,2013-08-15 05:25:00,
2013-08-15 01:30:00,56.1,52.3,30.02,NNW,333,0.0,0.0,87,0.00,,,0.00,0.0,meteohub,2013-08-15 05:30:00,
2013-08-15 01:35:00,56.1,52.7,30.02,NNW,333,0.0,0.0,88,0.00,,,0.00,0.0,meteohub,2013-08-15 05:35:00,
2013-08-15 01:40:00,55.9,52.7,30.02,NNW,333,0.0,0.0,89,0.00,,,0.00,0.0,meteohub,2013-08-15 05:40:00,
2013-08-15 01:45:00,55.9,52.7,30.02,NNW,333,0.0,0.0,89,0.00,,,0.00,0.0,meteohub,2013-08-15 05:45:00,
2013-08-15 01:50:00,55.9,52.7,30.02,NNW,333,0.0,0.0,89,0.00,,,0.00,0.0,meteohub,2013-08-15 05:50:00,
2013-08-15 01:55:00,55.8,52.5,30.02,NNW,333,0.0,0.0,89,0.00,,,0.00,0.0,meteohub,2013-08-15 05:55:00,
2013-08-15 02:01:00,55.2,52.0,30.02,NNW,333,0.0,0.0,89,0.00,,,0.00,0.0,meteohub,2013-08-15 06:01:00,
2013-08-15 02:06:00,55.0,52.2,30.02,NNW,333,0.0,0.0,90,0.00,,,0.00,0.0,meteohub,2013-08-15 06:06:00,
2013-08-15 02:11:00,55.0,52.5,30.02,NNW,333,0.0,0.0,91,0.00,,,0.00,0.0,meteohub,2013-08-15 06:11:00,
2013-08-15 02:16:00,55.2,52.7,30.03,NNW,333,0.0,0.0,91,0.00,,,0.00,0.0,meteohub,2013-08-15 06:16:00,
2013-08-15 02:21:00,55.2,52.3,30.03,NNW,334,0.0,0.0,90,0.00,,,0.00,0.0,meteohub,2013-08-15 06:21:00,
2013-08-15 02:26:00,55.0,52.2,30.03,NNW,334,0.0,0.0,90,0.00,,,0.00,0.0,meteohub,2013-08-15 06:26:00,
2013-08-15 02:31:00,54.9,52.0,30.03,NNW,334,0.0,0.0,90,0.00,,,0.00,0.0,meteohub,2013-08-15 06:31:00,
2013-08-15 02:36:00,54.9,52.3,30.03,NNW,334,0.0,0.0,91,0.00,,,0.00,0.0,meteohub,2013-08-15 06:36:00,
2013-08-15 02:41:00,54.9,52.3,30.03,NNW,334,0.0,0.0,91,0.00,,,0.00,0.0,meteohub,2013-08-15 06:41:00,
2013-08-15 02:47:00,54.9,52.3,30.03,NNW,334,0.0,0.0,91,0.00,,,0.00,0.0,meteohub,2013-08-15 06:47:00,
2013-08-15 02:52:00,54.7,52.2,30.04,NNW,335,0.0,0.0,91,0.00,,,0.00,0.0,meteohub,2013-08-15 06:52:00,
2013-08-15 02:57:00,54.3,51.8,30.04,NNW,338,0.0,1.0,91,0.00,,,0.00,0.0,meteohub,2013-08-15 06:57:00,
2013-08-15 03:02:00,54.3,51.8,30.04,NNW,338,0.0,1.0,91,0.00,,,0.00,0.0,meteohub,2013-08-15 07:02:00,
2013-08-15 03:07:00,54.1,51.6,30.04,NNW,338,0.0,1.0,91,0.00,,,0.00,0.0,meteohub,2013-08-15 07:07:00,
2013-08-15 03:12:00,54.0,51.6,30.04,NNW,338,0.0,0.0,92,0.00,,,0.00,0.0,meteohub,2013-08-15 07:12:00,
2013-08-15 03:17:00,54.0,51.4,30.04,NNW,338,0.0,0.0,91,0.00,,,0.00,0.0,meteohub,2013-08-15 07:17:00,
2013-08-15 03:22:00,53.8,51.4,30.04,NNW,338,0.0,0.0,92,0.00,,,0.00,0.0,meteohub,2013-08-15 07:22:00,
2013-08-15 03:27:00,53.8,51.4,30.03,NNW,338,0.0,0.0,92,0.00,,,0.00,0.0,meteohub,2013-08-15 07:27:00,
2013-08-15 03:32:00,53.8,51.4,30.03,NNW,338,0.0,0.0,92,0.00,,,0.00,0.0,meteohub,2013-08-15 07:32:00,
2013-08-15 03:37:00,53.8,51.4,30.04,NNW,338,0.0,0.0,92,0.00,,,0.00,0.0,meteohub,2013-08-15 07:37:00,
2013-08-15 03:42:00,53.8,51.4,30.04,NNW,338,0.0,0.0,92,0.00,,,0.00,0.0,meteohub,2013-08-15 07:42:00,
2013-08-15 03:47:00,53.8,51.8,30.03,NNW,338,0.0,0.0,93,0.00,,,0.00,0.0,meteohub,2013-08-15 07:47:00,
2013-08-15 03:52:00,54.3,52.3,30.03,NNW,338,2.0,0.0,93,0.00,,,0.00,0.0,meteohub,2013-08-15 07:52:00,
2013-08-15 03:57:00,55.0,52.7,30.04,NNW,338,0.0,4.0,92,0.00,,,0.00,0.0,meteohub,2013-08-15 07:57:00,
2013-08-15 04:02:00,55.2,52.7,30.04,NNW,337,0.0,4.0,91,0.00,,,0.00,0.0,meteohub,2013-08-15 08:02:00,
2013-08-15 04:07:00,55.2,52.7,30.04,NNW,338,0.0,4.0,91,0.00,,,0.00,0.0,meteohub,2013-08-15 08:07:00,
2013-08-15 04:12:00,55.6,52.7,30.04,NNW,338,0.0,2.0,90,0.00,,,0.00,0.0,meteohub,2013-08-15 08:12:00,
2013-08-15 04:17:00,55.6,52.3,30.04,NNW,338,0.0,2.0,89,0.00,,,0.00,0.0,meteohub,2013-08-15 08:17:00,
2013-08-15 04:22:00,55.2,52.0,30.04,NNW,338,0.0,2.0,89,0.00,,,0.00,0.0,meteohub,2013-08-15 08:22:00,
2013-08-15 04:27:00,54.9,52.0,30.04,NNW,338,0.0,0.0,90,0.00,,,0.00,0.0,meteohub,2013-08-15 08:27:00,
2013-08-15 04:32:00,54.9,52.0,30.04,NNW,338,0.0,0.0,90,0.00,,,0.00,0.0,meteohub,2013-08-15 08:32:00,
2013-08-15 04:37:00,54.7,51.8,30.04,NNW,338,0.0,0.0,90,0.00,,,0.00,0.0,meteohub,2013-08-15 08:37:00,
2013-08-15 04:42:00,54.5,51.6,30.04,NNW,338,0.0,0.0,90,0.00,,,0.00,0.0,meteohub,2013-08-15 08:42:00,
2013-08-15 04:47:00,54.1,51.3,30.04,NNW,338,0.0,0.0,90,0.00,,,0.00,0.0,meteohub,2013-08-15 08:47:00,
2013-08-15 04:52:00,54.0,51.4,30.04,NNW,338,0.0,0.0,91,0.00,,,0.00,0.0,meteohub,2013-08-15 08:52:00,
2013-08-15 04:57:00,54.0,51.4,30.04,NNW,337,0.0,0.0,91,0.00,,,0.00,0.0,meteohub,2013-08-15 08:57:00,
2013-08-15 05:02:00,53.8,51.3,30.04,NNW,338,0.0,0.0,91,0.00,,,0.00,0.0,meteohub,2013-08-15 09:02:00,
2013-08-15 05:07:00,53.6,51.1,30.05,NNW,338,0.0,0.0,91,0.00,,,0.00,0.0,meteohub,2013-08-15 09:07:00,
2013-08-15 05:12:00,53.4,50.9,30.05,NNW,338,0.0,0.0,91,0.00,,,0.00,0.0,meteohub,2013-08-15 09:12:00,
2013-08-15 05:17:00,53.2,50.7,30.05,NNW,338,0.0,0.0,91,0.00,,,0.00,0.0,meteohub,2013-08-15 09:17:00,
2013-08-15 05:22:00,53.2,50.9,30.05,NNW,338,0.0,0.0,92,0.00,,,0.00,0.0,meteohub,2013-08-15 09:22:00,
2013-08-15 05:27:00,53.2,50.9,30.05,NNW,338,0.0,0.0,92,0.00,,,0.00,0.0,meteohub,2013-08-15 09:27:00,
2013-08-15 05:32:00,53.1,50.7,30.05,NNW,338,0.0,0.0,92,0.00,,,0.00,0.0,meteohub,2013-08-15 09:32:00,
2013-08-15 05:37:00,53.1,50.7,30.06,NNW,337,0.0,0.0,92,0.00,,,0.00,0.0,meteohub,2013-08-15 09:37:00,
2013-08-15 05:42:00,52.9,50.5,30.06,NNW,338,0.0,0.0,92,0.00,,,0.00,0.0,meteohub,2013-08-15 09:42:00,
2013-08-15 05:47:00,52.7,50.4,30.06,NNW,338,0.0,0.0,92,0.00,,,0.00,0.0,meteohub,2013-08-15 09:47:00,
2013-08-15 05:52:00,52.5,50.2,30.07,NNW,338,0.0,0.0,92,0.00,,,0.00,0.0,meteohub,2013-08-15 09:52:00,
2013-08-15 05:57:00,52.5,50.5,30.07,NNW,338,0.0,0.0,93,0.00,,,0.00,0.0,meteohub,2013-08-15 09:57:00,
2013-08-15 06:02:00,52.3,50.0,30.07,NNW,338,0.0,0.0,92,0.00,,,0.00,0.0,meteohub,2013-08-15 10:02:00,
2013-08-15 06:07:00,52.0,49.6,30.07,NNW,338,0.0,0.0,92,0.00,,,0.00,5.0,meteohub,2013-08-15 10:07:00,
2013-08-15 06:12:00,52.0,50.0,30.07,NNW,338,0.0,0.0,93,0.00,,,0.00,7.0,meteohub,2013-08-15 10:12:00,
2013-08-15 06:17:00,51.8,49.8,30.08,NNW,338,0.0,0.0,93,0.00,,,0.00,9.0,meteohub,2013-08-15 10:17:00,
2013-08-15 06:22:00,52.0,50.0,30.08,NNW,338,0.0,0.0,93,0.00,,,0.00,11.0,meteohub,2013-08-15 10:22:00,
2013-08-15 06:27:00,52.2,50.2,30.08,NNW,338,0.0,0.0,93,0.00,,,0.00,12.0,meteohub,2013-08-15 10:27:00,
2013-08-15 06:32:00,52.2,50.2,30.08,NNW,338,0.0,1.0,93,0.00,,,0.00,14.0,meteohub,2013-08-15 10:32:00,
2013-08-15 06:37:00,52.0,50.0,30.08,NNW,338,0.0,1.0,93,0.00,,,0.00,16.0,meteohub,2013-08-15 10:37:00,
2013-08-15 06:42:00,52.0,50.0,30.08,NNW,338,0.0,1.0,93,0.00,,,0.00,40.0,meteohub,2013-08-15 10:42:00,
2013-08-15 06:47:00,52.3,50.7,30.08,NNW,338,0.0,0.0,94,0.00,,,0.00,63.0,meteohub,2013-08-15 10:47:00,
2013-08-15 06:52:00,52.5,50.5,30.09,NNW,338,0.0,0.0,93,0.00,,,0.00,74.0,meteohub,2013-08-15 10:52:00,
2013-08-15 06:57:00,52.9,51.3,30.09,NNW,338,0.0,0.0,94,0.00,,,0.00,91.0,meteohub,2013-08-15 10:57:00,
2013-08-15 07:02:00,53.4,51.8,30.08,NNW,338,0.0,0.0,94,0.00,,,0.00,102.0,meteohub,2013-08-15 11:02:00,
2013-08-15 07:07:00,54.0,52.3,30.08,NNW,338,0.0,0.0,94,0.00,,,0.00,114.0,meteohub,2013-08-15 11:07:00,
2013-08-15 07:12:00,54.5,52.9,30.09,NNW,338,0.0,0.0,94,0.00,,,0.00,130.0,meteohub,2013-08-15 11:12:00,
2013-08-15 07:17:00,55.0,53.4,30.08,NNW,338,0.0,0.0,94,0.00,,,0.00,149.0,meteohub,2013-08-15 11:17:00,
2013-08-15 07:22:00,55.9,54.3,30.09,NNW,338,0.0,0.0,94,0.00,,,0.00,163.0,meteohub,2013-08-15 11:22:00,
2013-08-15 07:27:00,56.7,54.7,30.09,NNW,338,0.0,1.0,93,0.00,,,0.00,176.0,meteohub,2013-08-15 11:27:00,
2013-08-15 07:35:00,57.7,55.8,30.09,NNW,338,0.0,1.0,93,0.00,,,0.00,200.0,meteohub,2013-08-15 11:35:00,
2013-08-15 07:40:00,58.8,56.5,30.09,NNW,338,0.0,1.0,92,0.00,,,0.00,218.0,meteohub,2013-08-15 11:40:00,
2013-08-15 07:45:00,59.7,56.8,30.09,NNW,338,0.0,2.0,90,0.00,,,0.00,232.0,meteohub,2013-08-15 11:45:00,
2013-08-15 07:50:00,60.3,56.3,30.09,NNW,338,0.0,2.0,87,0.00,,,0.00,243.0,meteohub,2013-08-15 11:50:00,
2013-08-15 07:55:00,61.2,56.7,30.09,NNW,338,0.0,4.0,85,0.00,,,0.00,274.0,meteohub,2013-08-15 11:55:00,
2013-08-15 08:00:00,62.1,56.5,30.09,NNW,338,0.0,4.0,82,0.00,,,0.00,290.0,meteohub,2013-08-15 12:00:00,
2013-08-15 08:05:00,62.4,56.1,30.09,NNW,338,0.0,4.0,80,0.00,,,0.00,309.0,meteohub,2013-08-15 12:05:00,
2013-08-15 08:10:00,63.3,56.3,30.09,NNW,338,2.0,4.0,78,0.00,,,0.00,332.0,meteohub,2013-08-15 12:10:00,
2013-08-15 08:16:00,63.5,55.8,30.09,NNW,336,0.0,5.0,76,0.00,,,0.00,353.0,meteohub,2013-08-15 12:16:00,
2013-08-15 08:21:00,64.0,56.3,30.09,NW,315,0.0,7.0,76,0.00,,,0.00,367.0,meteohub,2013-08-15 12:21:00,
2013-08-15 08:26:00,64.9,56.8,30.09,NNW,337,4.0,7.0,75,0.00,,,0.00,385.0,meteohub,2013-08-15 12:26:00,
2013-08-15 08:31:00,65.7,56.8,30.09,NNE,18,4.0,7.0,73,0.00,,,0.00,401.0,meteohub,2013-08-15 12:31:00,
2013-08-15 08:36:00,66.4,56.3,30.09,NW,315,4.0,7.0,70,0.00,,,0.00,417.0,meteohub,2013-08-15 12:36:00,
2013-08-15 08:41:00,66.9,56.8,30.09,NNW,331,1.0,8.0,70,0.00,,,0.00,431.0,meteohub,2013-08-15 12:41:00,
2013-08-15 08:46:00,67.3,56.3,30.09,NW,317,7.0,8.0,68,0.00,,,0.00,448.0,meteohub,2013-08-15 12:46:00,
2013-08-15 08:52:00,67.6,56.3,30.09,NNW,333,7.0,9.0,67,0.00,,,0.00,462.0,meteohub,2013-08-15 12:52:00,
2013-08-15 08:57:00,67.5,56.1,30.09,NW,318,5.0,11.0,67,0.00,,,0.00,471.0,meteohub,2013-08-15 12:57:00,
2013-08-15 09:02:00,68.2,56.8,30.09,North,350,6.0,11.0,67,0.00,,,0.00,485.0,meteohub,2013-08-15 13:02:00,
2013-08-15 09:07:00,68.7,56.8,30.09,WNW,294,2.0,11.0,66,0.00,,,0.00,501.0,meteohub,2013-08-15 13:07:00,
2013-08-15 09:12:00,69.3,57.0,30.09,NNW,337,5.0,8.0,65,0.00,,,0.00,519.0,meteohub,2013-08-15 13:12:00,
2013-08-15 09:17:00,70.2,57.0,30.10,NW,325,4.0,9.0,63,0.00,,,0.00,531.0,meteohub,2013-08-15 13:17:00,
2013-08-15 09:22:00,70.3,56.3,30.10,NW,319,6.0,9.0,61,0.00,,,0.00,547.0,meteohub,2013-08-15 13:22:00,
2013-08-15 09:27:00,70.9,55.8,30.10,NNW,329,7.0,11.0,59,0.00,,,0.00,559.0,meteohub,2013-08-15 13:27:00,
2013-08-15 09:32:00,71.8,56.1,30.10,NNW,339,5.0,11.0,58,0.00,,,0.00,571.0,meteohub,2013-08-15 13:32:00,
2013-08-15 09:37:00,72.7,56.5,30.10,North,5,3.0,11.0,57,0.00,,,0.00,585.0,meteohub,2013-08-15 13:37:00,
2013-08-15 09:42:00,72.9,56.3,30.10,North,10,6.0,9.0,56,0.00,,,0.00,598.0,meteohub,2013-08-15 13:42:00,
2013-08-15 09:47:00,72.5,55.9,30.10,NW,313,2.0,8.0,56,0.00,,,0.00,610.0,meteohub,2013-08-15 13:47:00,
2013-08-15 09:52:00,72.7,56.1,30.10,North,9,6.0,8.0,56,0.00,,,0.00,622.0,meteohub,2013-08-15 13:52:00,
2013-08-15 09:57:00,73.6,55.4,30.10,SW,224,1.0,8.0,53,0.00,,,0.00,640.0,meteohub,2013-08-15 13:57:00,
2013-08-15 10:02:00,73.8,55.0,30.10,NW,325,9.0,9.0,52,0.00,,,0.00,649.0,meteohub,2013-08-15 14:02:00,
2013-08-15 10:07:00,74.1,54.9,30.10,NNW,336,5.0,11.0,51,0.00,,,0.00,659.0,meteohub,2013-08-15 14:07:00,
2013-08-15 10:12:00,73.4,54.1,30.10,WNW,291,5.0,11.0,51,0.00,,,0.00,671.0,meteohub,2013-08-15 14:12:00,
2013-08-15 10:17:00,73.9,54.7,30.10,NW,317,5.0,11.0,51,0.00,,,0.00,680.0,meteohub,2013-08-15 14:17:00,
2013-08-15 10:22:00,74.7,54.9,30.11,NNW,342,6.0,11.0,50,0.00,,,0.00,691.0,meteohub,2013-08-15 14:22:00,
2013-08-15 10:27:00,75.7,56.3,30.10,NNE,12,4.0,11.0,51,0.00,,,0.00,703.0,meteohub,2013-08-15 14:27:00,
2013-08-15 10:32:00,76.3,56.3,30.11,NNW,343,7.0,11.0,50,0.00,,,0.00,715.0,meteohub,2013-08-15 14:32:00,
2013-08-15 10:37:00,76.8,55.6,30.10,NW,322,4.0,12.0,48,0.00,,,0.00,722.0,meteohub,2013-08-15 14:37:00,
2013-08-15 10:42:00,76.8,56.8,30.10,North,5,5.0,12.0,50,0.00,,,0.00,733.0,meteohub,2013-08-15 14:42:00,
2013-08-15 10:47:00,77.2,55.9,30.10,WNW,283,9.0,10.0,48,0.00,,,0.00,759.0,meteohub,2013-08-15 14:47:00,
2013-08-15 10:52:00,77.7,56.5,30.10,NNE,12,5.0,12.0,48,0.00,,,0.00,786.0,meteohub,2013-08-15 14:52:00,
2013-08-15 10:57:00,77.5,55.8,30.10,NW,307,5.0,12.0,47,0.00,,,0.00,817.0,meteohub,2013-08-15 14:57:00,
2013-08-15 11:02:00,77.7,54.7,30.10,SW,215,8.0,12.0,45,0.00,,,0.00,844.0,meteohub,2013-08-15 15:02:00,
2013-08-15 11:08:00,75.0,54.5,30.10,WSW,237,1.0,12.0,49,0.00,,,0.00,891.0,meteohub,2013-08-15 15:08:00,
2013-08-15 11:13:00,76.1,54.3,30.10,NW,306,6.0,12.0,47,0.00,,,0.00,916.0,meteohub,2013-08-15 15:13:00,
2013-08-15 11:18:00,77.5,54.5,30.10,NW,325,6.0,11.0,45,0.00,,,0.00,891.0,meteohub,2013-08-15 15:18:00,
2013-08-15 11:23:00,77.7,52.2,30.10,North,350,1.0,13.0,41,0.00,,,0.00,904.0,meteohub,2013-08-15 15:23:00,
2013-08-15 11:28:00,77.7,53.4,30.10,NW,306,2.0,13.0,43,0.00,,,0.00,895.0,meteohub,2013-08-15 15:28:00,
2013-08-15 11:33:00,79.5,54.5,30.10,North,5,3.0,13.0,42,0.00,,,0.00,946.0,meteohub,2013-08-15 15:33:00,
2013-08-15 11:38:00,79.0,55.8,30.10,North,0,0.0,8.0,45,0.00,,,0.00,983.0,meteohub,2013-08-15 15:38:00,
2013-08-15 11:43:00,78.4,53.4,30.10,NNW,346,2.0,8.0,42,0.00,,,0.00,977.0,meteohub,2013-08-15 15:43:00,
2013-08-15 11:48:00,77.2,52.3,30.09,SSW,205,5.0,12.0,42,0.00,,,0.00,970.0,meteohub,2013-08-15 15:48:00,
2013-08-15 11:53:00,76.5,52.9,30.09,WNW,297,7.0,12.0,44,0.00,,,0.00,986.0,meteohub,2013-08-15 15:53:00,
2013-08-15 11:59:00,77.5,54.5,30.09,WNW,300,5.0,10.0,45,0.00,,,0.00,234.0,meteohub,2013-08-15 15:59:00,
2013-08-15 12:04:00,75.4,55.9,30.09,South,184,4.0,14.0,51,0.00,,,0.00,221.0,meteohub,2013-08-15 16:04:00,
2013-08-15 12:09:00,72.9,55.8,30.09,SW,221,3.0,14.0,55,0.00,,,0.00,169.0,meteohub,2013-08-15 16:09:00,
2013-08-15 12:14:00,72.1,56.1,30.09,SSE,167,2.0,14.0,57,0.00,,,0.00,1025.0,meteohub,2013-08-15 16:14:00,
2013-08-15 12:19:00,72.3,57.2,30.09,SSW,197,7.0,7.0,59,0.00,,,0.00,141.0,meteohub,2013-08-15 16:19:00,
2013-08-15 12:24:00,71.8,57.6,30.09,SSW,194,12.0,12.0,61,0.00,,,0.00,120.0,meteohub,2013-08-15 16:24:00,
2013-08-15 12:29:00,71.2,57.0,30.09,South,178,6.0,10.0,61,0.00,,,0.00,942.0,meteohub,2013-08-15 16:29:00,
2013-08-15 12:35:00,72.7,57.6,30.08,SSW,192,6.0,14.0,59,0.00,,,0.00,991.0,meteohub,2013-08-15 16:35:00,
2013-08-15 12:40:00,73.8,57.0,30.08,SE,144,4.0,14.0,56,0.00,,,0.00,1021.0,meteohub,2013-08-15 16:40:00,
2013-08-15 12:45:00,72.3,56.7,30.09,SSW,210,5.0,18.0,58,0.00,,,0.00,1005.0,meteohub,2013-08-15 16:45:00,
2013-08-15 12:50:00,73.2,57.0,30.09,South,189,9.0,18.0,57,0.00,,,0.00,1000.0,meteohub,2013-08-15 16:50:00,
2013-08-15 12:55:00,73.6,55.9,30.08,South,178,5.0,15.0,54,0.00,,,0.00,1025.0,meteohub,2013-08-15 16:55:00,
2013-08-15 13:00:00,73.9,56.8,30.08,WNW,298,5.0,15.0,55,0.00,,,0.00,1025.0,meteohub,2013-08-15 17:00:00,
2013-08-15 13:05:00,75.4,56.5,30.08,SW,220,7.0,15.0,52,0.00,,,0.00,186.0,meteohub,2013-08-15 17:05:00,
2013-08-15 13:10:00,73.4,55.2,30.08,SSW,207,3.0,13.0,53,0.00,,,0.00,183.0,meteohub,2013-08-15 17:10:00,
2013-08-15 13:16:00,72.9,56.3,30.08,SSW,196,7.0,14.0,56,0.00,,,0.00,976.0,meteohub,2013-08-15 17:16:00,
2013-08-15 13:22:00,74.1,55.9,30.08,SW,236,7.0,14.0,53,0.00,,,0.00,997.0,meteohub,2013-08-15 17:22:00,
2013-08-15 13:27:00,74.1,55.4,30.08,West,271,7.0,14.0,52,0.00,,,0.00,1004.0,meteohub,2013-08-15 17:27:00,
2013-08-15 13:32:00,74.1,55.9,30.07,West,261,8.0,15.0,53,0.00,,,0.00,944.0,meteohub,2013-08-15 17:32:00,
2013-08-15 13:37:00,73.9,55.2,30.08,South,172,6.0,15.0,52,0.00,,,0.00,1009.0,meteohub,2013-08-15 17:37:00,
2013-08-15 13:42:00,73.8,56.1,30.07,SSE,168,2.0,16.0,54,0.00,,,0.00,200.0,meteohub,2013-08-15 17:42:00,
2013-08-15 13:47:00,73.6,55.9,30.07,WSW,239,4.0,16.0,54,0.00,,,0.00,911.0,meteohub,2013-08-15 17:47:00,
2013-08-15 13:53:00,73.9,56.3,30.07,SW,236,6.0,15.0,54,0.00,,,0.00,888.0,meteohub,2013-08-15 17:53:00,
2013-08-15 13:58:00,74.8,56.1,30.07,SSW,207,5.0,16.0,52,0.00,,,0.00,882.0,meteohub,2013-08-15 17:58:00,
2013-08-15 14:03:00,74.1,54.9,30.06,West,273,15.0,16.0,51,0.00,,,0.00,846.0,meteohub,2013-08-15 18:03:00,
2013-08-15 14:08:00,74.7,54.9,30.06,WSW,254,4.0,14.0,50,0.00,,,0.00,856.0,meteohub,2013-08-15 18:08:00,
2013-08-15 14:13:00,75.0,55.6,30.06,SW,215,2.0,18.0,51,0.00,,,0.00,833.0,meteohub,2013-08-15 18:13:00,
2013-08-15 14:19:00,75.2,54.1,30.06,SW,225,8.0,18.0,48,0.00,,,0.00,828.0,meteohub,2013-08-15 18:19:00,
2013-08-15 14:24:00,74.3,54.5,30.06,SW,218,4.0,16.0,50,0.00,,,0.00,807.0,meteohub,2013-08-15 18:24:00,
2013-08-15 14:29:00,74.1,54.9,30.06,SSE,148,13.0,16.0,51,0.00,,,0.00,761.0,meteohub,2013-08-15 18:29:00,
2013-08-15 14:34:00,75.0,55.0,30.06,South,169,8.0,18.0,50,0.00,,,0.00,812.0,meteohub,2013-08-15 18:34:00,
2013-08-15 14:39:00,75.0,54.5,30.06,South,177,4.0,18.0,49,0.00,,,0.00,740.0,meteohub,2013-08-15 18:39:00,
2013-08-15 14:44:00,75.4,53.2,30.06,South,184,6.0,18.0,46,0.00,,,0.00,805.0,meteohub,2013-08-15 18:44:00,
2013-08-15 14:49:00,74.8,53.2,30.06,SSE,166,2.0,17.0,47,0.00,,,0.00,777.0,meteohub,2013-08-15 18:49:00,
2013-08-15 14:54:00,74.7,54.9,30.06,WNW,292,7.0,17.0,50,0.00,,,0.00,791.0,meteohub,2013-08-15 18:54:00,
2013-08-15 15:00:00,75.6,54.5,30.06,SE,142,8.0,17.0,48,0.00,,,0.00,775.0,meteohub,2013-08-15 19:00:00,
2013-08-15 15:05:00,74.3,54.0,30.06,SW,230,11.0,14.0,49,0.00,,,0.00,747.0,meteohub,2013-08-15 19:05:00,
2013-08-15 15:10:00,74.1,53.8,30.05,West,272,9.0,17.0,49,0.00,,,0.00,694.0,meteohub,2013-08-15 19:10:00,
2013-08-15 15:15:00,74.1,53.8,30.05,WSW,257,4.0,18.0,49,0.00,,,0.00,763.0,meteohub,2013-08-15 19:15:00,
2013-08-15 15:20:00,75.0,54.5,30.06,South,177,8.0,18.0,49,0.00,,,0.00,729.0,meteohub,2013-08-15 19:20:00,
2013-08-15 15:26:00,75.4,54.3,30.06,South,191,2.0,18.0,48,0.00,,,0.00,598.0,meteohub,2013-08-15 19:26:00,
2013-08-15 15:31:00,75.4,54.9,30.06,SW,217,2.0,14.0,49,0.00,,,0.00,577.0,meteohub,2013-08-15 19:31:00,
2013-08-15 15:36:00,75.2,54.7,30.05,SSW,198,13.0,13.0,49,0.00,,,0.00,652.0,meteohub,2013-08-15 19:36:00,
2013-08-15 15:41:00,74.1,53.8,30.05,WSW,244,6.0,14.0,49,0.00,,,0.00,573.0,meteohub,2013-08-15 19:41:00,
2013-08-15 15:46:00,74.1,54.3,30.05,SSE,159,9.0,16.0,50,0.00,,,0.00,636.0,meteohub,2013-08-15 19:46:00,
2013-08-15 15:52:00,74.5,55.2,30.05,South,186,7.0,19.0,51,0.00,,,0.00,693.0,meteohub,2013-08-15 19:52:00,
2013-08-15 15:57:00,74.7,54.9,30.05,SW,215,9.0,19.0,50,0.00,,,0.00,517.0,meteohub,2013-08-15 19:57:00,
2013-08-15 16:02:00,74.5,54.7,30.05,South,171,7.0,19.0,50,0.00,,,0.00,666.0,meteohub,2013-08-15 20:02:00,
2013-08-15 16:07:00,74.1,54.3,30.04,South,178,2.0,18.0,50,0.00,,,0.00,606.0,meteohub,2013-08-15 20:07:00,
2013-08-15 16:12:00,75.2,54.7,30.05,SSE,166,5.0,18.0,49,0.00,,,0.00,624.0,meteohub,2013-08-15 20:12:00,
2013-08-15 16:18:00,74.8,52.7,30.05,SW,224,5.0,17.0,46,0.00,,,0.00,526.0,meteohub,2013-08-15 20:18:00,
2013-08-15 16:23:00,74.5,54.7,30.04,South,181,10.0,16.0,50,0.00,,,0.00,573.0,meteohub,2013-08-15 20:23:00,
2013-08-15 16:28:00,75.0,54.0,30.05,SW,215,6.0,16.0,48,0.00,,,0.00,601.0,meteohub,2013-08-15 20:28:00,
2013-08-15 16:33:00,75.0,54.5,30.05,SW,226,0.0,16.0,49,0.00,,,0.00,483.0,meteohub,2013-08-15 20:33:00,
2013-08-15 16:38:00,75.0,52.9,30.05,SW,236,5.0,15.0,46,0.00,,,0.00,492.0,meteohub,2013-08-15 20:38:00,
2013-08-15 16:43:00,75.4,53.8,30.05,SW,229,13.0,14.0,47,0.00,,,0.00,541.0,meteohub,2013-08-15 20:43:00,
2013-08-15 16:48:00,74.8,53.8,30.04,SSE,162,2.0,14.0,48,0.00,,,0.00,526.0,meteohub,2013-08-15 20:48:00,
2013-08-15 16:53:00,74.8,54.3,30.04,SW,221,6.0,15.0,49,0.00,,,0.00,438.0,meteohub,2013-08-15 20:53:00,
2013-08-15 16:58:00,74.7,54.3,30.04,NW,306,8.0,15.0,49,0.00,,,0.00,446.0,meteohub,2013-08-15 20:58:00,
2013-08-15 17:03:00,74.7,54.3,30.04,SW,215,9.0,15.0,49,0.00,,,0.00,432.0,meteohub,2013-08-15 21:03:00,
2013-08-15 17:09:00,74.5,53.4,30.04,SSW,196,8.0,14.0,48,0.00,,,0.00,439.0,meteohub,2013-08-15 21:09:00,
2013-08-15 17:14:00,74.7,54.3,30.04,South,185,6.0,17.0,49,0.00,,,0.00,452.0,meteohub,2013-08-15 21:14:00,
2013-08-15 17:19:00,74.8,54.3,30.05,SW,217,6.0,17.0,49,0.00,,,0.00,434.0,meteohub,2013-08-15 21:19:00,
2013-08-15 17:24:00,74.7,54.9,30.05,South,190,8.0,17.0,50,0.00,,,0.00,411.0,meteohub,2013-08-15 21:24:00,
2013-08-15 17:26:00,74.7,55.4,30.05,South,177,5.0,14.0,51,0.00,,,0.00,396.0,meteohub,2013-08-15 21:26:00,
2013-08-15 17:32:00,74.8,55.6,30.05,SW,232,5.0,14.0,51,0.00,,,0.00,394.0,meteohub,2013-08-15 21:32:00,
2013-08-15 17:41:00,74.5,55.8,30.04,SW,232,5.0,13.0,52,0.00,,,0.00,88.0,meteohub,2013-08-15 21:41:00,
2013-08-15 17:46:00,73.9,55.2,30.05,WSW,254,4.0,13.0,52,0.00,,,0.00,292.0,meteohub,2013-08-15 21:46:00,
2013-08-15 17:51:00,74.7,55.9,30.05,South,180,0.0,13.0,52,0.00,,,0.00,315.0,meteohub,2013-08-15 21:51:00,
2013-08-15 17:57:00,75.0,56.1,30.05,SW,214,5.0,13.0,52,0.00,,,0.00,292.0,meteohub,2013-08-15 21:57:00,
2013-08-15 18:02:00,74.8,56.1,30.05,SSW,195,3.0,11.0,52,0.00,,,0.00,279.0,meteohub,2013-08-15 22:02:00,
2013-08-15 18:07:00,74.7,55.9,30.04,WSW,239,4.0,14.0,52,0.00,,,0.00,264.0,meteohub,2013-08-15 22:07:00,
2013-08-15 18:12:00,74.5,56.3,30.05,South,188,0.0,14.0,53,0.00,,,0.00,243.0,meteohub,2013-08-15 22:12:00,
2013-08-15 18:17:00,74.1,55.9,30.05,SW,229,7.0,10.0,53,0.00,,,0.00,42.0,meteohub,2013-08-15 22:17:00,
2013-08-15 18:22:00,73.6,55.9,30.05,SSW,206,1.0,10.0,54,0.00,,,0.00,46.0,meteohub,2013-08-15 22:22:00,
2013-08-15 18:27:00,73.2,56.1,30.04,SSW,210,0.0,10.0,55,0.00,,,0.00,58.0,meteohub,2013-08-15 22:27:00,
2013-08-15 18:33:00,73.4,56.7,30.04,SSW,198,0.0,8.0,56,0.00,,,0.00,178.0,meteohub,2013-08-15 22:33:00,
2013-08-15 18:37:00,73.6,56.8,30.04,SSW,205,4.0,7.0,56,0.00,,,0.00,155.0,meteohub,2013-08-15 22:37:00,
2013-08-15 18:43:00,73.6,57.4,30.04,SW,232,0.0,7.0,57,0.00,,,0.00,139.0,meteohub,2013-08-15 22:43:00,
2013-08-15 18:48:00,73.8,57.6,30.04,West,281,1.0,7.0,57,0.00,,,0.00,70.0,meteohub,2013-08-15 22:48:00,
2013-08-15 18:53:00,73.6,57.4,30.05,SW,223,0.0,6.0,57,0.00,,,0.00,104.0,meteohub,2013-08-15 22:53:00,
2013-08-15 18:58:00,73.6,57.4,30.04,South,178,0.0,6.0,57,0.00,,,0.00,86.0,meteohub,2013-08-15 22:58:00,
2013-08-15 19:05:00,73.0,57.9,30.05,South,190,0.0,5.0,59,0.00,,,0.00,62.0,meteohub,2013-08-15 23:05:00,
2013-08-15 19:10:00,72.9,57.7,30.05,SSW,192,1.0,4.0,59,0.00,,,0.00,23.0,meteohub,2013-08-15 23:10:00,
2013-08-15 19:15:00,72.3,57.7,30.06,SSW,192,0.0,3.0,60,0.00,,,0.00,21.0,meteohub,2013-08-15 23:15:00,
2013-08-15 19:20:00,72.1,58.5,30.06,SSW,192,0.0,3.0,62,0.00,,,0.00,16.0,meteohub,2013-08-15 23:20:00,
2013-08-15 19:25:00,71.4,58.1,30.06,SSW,192,0.0,3.0,63,0.00,,,0.00,12.0,meteohub,2013-08-15 23:25:00,
2013-08-15 19:30:00,70.9,58.5,30.06,SSW,192,0.0,1.0,65,0.00,,,0.00,11.0,meteohub,2013-08-15 23:30:00,
2013-08-15 19:36:00,70.2,58.3,30.06,SSW,192,0.0,0.0,66,0.00,,,0.00,12.0,meteohub,2013-08-15 23:36:00,
2013-08-15 19:41:00,69.4,58.5,30.07,SSW,192,0.0,0.0,68,0.00,,,0.00,7.0,meteohub,2013-08-15 23:41:00,
2013-08-15 19:46:00,68.7,58.1,30.07,SSW,192,0.0,0.0,69,0.00,,,0.00,0.0,meteohub,2013-08-15 23:46:00,
2013-08-15 19:51:00,68.4,58.6,30.07,SSW,192,0.0,0.0,71,0.00,,,0.00,0.0,meteohub,2013-08-15 23:51:00,
2013-08-15 19:56:00,68.5,59.2,30.07,SSW,192,0.0,0.0,72,0.00,,,0.00,0.0,meteohub,2013-08-15 23:56:00,
2013-08-15 20:01:00,68.5,59.5,30.07,SSW,192,0.0,0.0,73,0.00,,,0.00,0.0,meteohub,2013-08-16 00:01:00,
2013-08-15 20:07:00,68.4,59.4,30.08,SSW,192,0.0,0.0,73,0.00,,,0.00,0.0,meteohub,2013-08-16 00:07:00,
2013-08-15 20:12:00,67.8,58.8,30.08,SSW,192,0.0,1.0,73,0.00,,,0.00,0.0,meteohub,2013-08-16 00:12:00,
2013-08-15 20:17:00,67.5,58.8,30.08,SSW,192,0.0,1.0,74,0.00,,,0.00,0.0,meteohub,2013-08-16 00:17:00,
2013-08-15 20:22:00,67.5,59.2,30.08,SSW,192,0.0,1.0,75,0.00,,,0.00,0.0,meteohub,2013-08-16 00:22:00,
2013-08-15 20:28:00,67.3,58.6,30.09,SSW,192,0.0,0.0,74,0.00,,,0.00,0.0,meteohub,2013-08-16 00:28:00,
2013-08-15 20:33:00,67.3,59.0,30.09,SSW,192,0.0,0.0,75,0.00,,,0.00,0.0,meteohub,2013-08-16 00:33:00,
2013-08-15 20:38:00,67.5,59.5,30.09,SSW,192,0.0,0.0,76,0.00,,,0.00,0.0,meteohub,2013-08-16 00:38:00,
2013-08-15 20:43:00,67.3,59.5,30.10,SSW,192,0.0,0.0,76,0.00,,,0.00,0.0,meteohub,2013-08-16 00:43:00,
2013-08-15 20:49:00,66.9,58.8,30.10,SSW,192,0.0,0.0,75,0.00,,,0.00,0.0,meteohub,2013-08-16 00:49:00,
2013-08-15 20:54:00,66.6,58.5,30.10,SSW,192,0.0,0.0,75,0.00,,,0.00,0.0,meteohub,2013-08-16 00:54:00,
2013-08-15 20:59:00,66.6,59.2,30.10,SSW,192,0.0,0.0,77,0.00,,,0.00,0.0,meteohub,2013-08-16 00:59:00,
2013-08-15 21:04:00,66.7,59.4,30.10,SSW,192,0.0,0.0,77,0.00,,,0.00,0.0,meteohub,2013-08-16 01:04:00,
2013-08-15 21:09:00,66.7,59.4,30.11,SSW,192,0.0,0.0,77,0.00,,,0.00,0.0,meteohub,2013-08-16 01:09:00,
2013-08-15 21:14:00,66.7,59.7,30.11,SSW,192,0.0,0.0,78,0.00,,,0.00,0.0,meteohub,2013-08-16 01:14:00,
2013-08-15 21:20:00,66.6,59.5,30.11,SSW,192,0.0,0.0,78,0.00,,,0.00,0.0,meteohub,2013-08-16 01:20:00,
2013-08-15 21:25:00,66.4,58.3,30.11,SSW,210,0.0,3.0,75,0.00,,,0.00,0.0,meteohub,2013-08-16 01:25:00,
2013-08-15 21:30:00,66.7,58.6,30.11,SSW,210,0.0,3.0,75,0.00,,,0.00,0.0,meteohub,2013-08-16 01:30:00,
2013-08-15 21:35:00,66.9,58.8,30.11,SSW,210,0.0,3.0,75,0.00,,,0.00,0.0,meteohub,2013-08-16 01:35:00,
2013-08-15 21:40:00,66.7,59.0,30.11,SSW,210,0.0,3.0,76,0.00,,,0.00,0.0,meteohub,2013-08-16 01:40:00,
2013-08-15 21:45:00,66.7,59.4,30.11,SSW,210,0.0,1.0,77,0.00,,,0.00,0.0,meteohub,2013-08-16 01:45:00,
2013-08-15 21:51:00,66.4,59.4,30.11,SSW,210,0.0,0.0,78,0.00,,,0.00,0.0,meteohub,2013-08-16 01:51:00,
2013-08-15 21:56:00,65.7,58.6,30.11,SSW,210,0.0,0.0,78,0.00,,,0.00,0.0,meteohub,2013-08-16 01:56:00,
2013-08-15 22:01:00,65.3,58.6,30.11,SSW,210,0.0,0.0,79,0.00,,,0.00,0.0,meteohub,2013-08-16 02:01:00,
2013-08-15 22:06:00,64.9,59.0,30.11,SSW,210,0.0,0.0,81,0.00,,,0.00,0.0,meteohub,2013-08-16 02:06:00,
2013-08-15 22:08:00,64.9,59.0,30.11,SSW,210,0.0,0.0,81,0.00,,,0.00,0.0,meteohub,2013-08-16 02:08:00,
2013-08-15 22:12:00,64.8,58.8,30.11,SSW,210,0.0,0.0,81,0.00,,,0.00,0.0,meteohub,2013-08-16 02:12:00,
2013-08-15 22:17:00,64.4,58.5,30.11,SSW,210,0.0,0.0,81,0.00,,,0.00,0.0,meteohub,2013-08-16 02:17:00,
2013-08-15 22:22:00,64.4,58.8,30.12,SSW,210,0.0,0.0,82,0.00,,,0.00,0.0,meteohub,2013-08-16 02:22:00,
2013-08-15 22:27:00,64.2,59.0,30.11,SSW,210,0.0,0.0,83,0.00,,,0.00,0.0,meteohub,2013-08-16 02:27:00,
2013-08-15 22:32:00,64.6,59.4,30.11,SW,214,0.0,1.0,83,0.00,,,0.00,0.0,meteohub,2013-08-16 02:32:00,
2013-08-15 22:37:00,65.1,59.9,30.11,SSW,207,0.0,2.0,83,0.00,,,0.00,0.0,meteohub,2013-08-16 02:37:00,
2013-08-15 22:42:00,65.7,60.1,30.11,SW,227,1.0,3.0,82,0.00,,,0.00,0.0,meteohub,2013-08-16 02:42:00,
2013-08-15 22:47:00,66.0,60.4,30.11,SW,223,0.0,8.0,82,0.00,,,0.00,0.0,meteohub,2013-08-16 02:47:00,
2013-08-15 22:52:00,66.0,60.1,30.12,WSW,244,3.0,8.0,81,0.00,,,0.00,0.0,meteohub,2013-08-16 02:52:00,
2013-08-15 22:57:00,66.4,60.4,30.12,SW,235,0.0,6.0,81,0.00,,,0.00,0.0,meteohub,2013-08-16 02:57:00,
2013-08-15 23:02:00,66.4,60.4,30.12,SW,235,0.0,4.0,81,0.00,,,0.00,0.0,meteohub,2013-08-16 03:02:00,
2013-08-15 23:07:00,66.2,60.3,30.12,WSW,251,0.0,3.0,81,0.00,,,0.00,0.0,meteohub,2013-08-16 03:07:00,
2013-08-15 23:12:00,65.7,60.1,30.12,WSW,251,0.0,3.0,82,0.00,,,0.00,0.0,meteohub,2013-08-16 03:12:00,
2013-08-15 23:17:00,65.1,59.9,30.12,WSW,251,0.0,3.0,83,0.00,,,0.00,0.0,meteohub,2013-08-16 03:17:00,
2013-08-15 23:22:00,64.2,59.4,30.12,NW,311,4.0,4.0,84,0.00,,,0.00,0.0,meteohub,2013-08-16 03:22:00,
2013-08-15 23:27:00,63.3,58.8,30.12,NW,312,2.0,5.0,85,0.00,,,0.00,0.0,meteohub,2013-08-16 03:27:00,
2013-08-15 23:32:00,63.0,58.6,30.12,NW,312,1.0,5.0,86,0.00,,,0.00,0.0,meteohub,2013-08-16 03:32:00,
2013-08-15 23:37:00,62.4,58.5,30.13,NW,312,2.0,5.0,87,0.00,,,0.00,0.0,meteohub,2013-08-16 03:37:00,
2013-08-15 23:42:00,62.2,58.6,30.13,NW,312,2.0,5.0,88,0.00,,,0.00,0.0,meteohub,2013-08-16 03:42:00,
2013-08-15 23:48:00,61.9,58.3,30.13,NW,312,2.0,4.0,88,0.00,,,0.00,0.0,meteohub,2013-08-16 03:48:00,
2013-08-15 23:53:00,61.7,58.5,30.12,NW,312,2.0,5.0,89,0.00,,,0.00,0.0,meteohub,2013-08-16 03:53:00,
2013-08-15 23:58:00,61.5,58.3,30.13,NW,312,2.0,5.0,89,0.00,,,0.00,0.0,meteohub,2013-08-16 03:58:00,